This is the latest recevied weather packets stored in our database for station/object SP6PGH-13. If no packets are shown the sender has not sent any weather packets the latest 10 day(s).
| Time | Temp. | Humidity | Pressure | Rain* | Wind** | Luminosity | Snow |
|---|---|---|---|---|---|---|---|
| 1787784165 | 12.22° C | 90% | 1007.5 hPa | - | - | - | - |
| 1787783264 | 12.78° C | 86% | 1007.5 hPa | - | - | - | - |
| 1787782363 | 13.33° C | 84% | 1007.4 hPa | - | - | - | - |
| 1787781462 | 13.89° C | 81% | 1007.4 hPa | - | - | - | - |
| 1787780561 | 14.44° C | 81% | 1007.3 hPa | - | - | - | - |
| 1787779661 | 15° C | 79% | 1007.4 hPa | - | - | - | - |
| 1787778759 | 16.11° C | 75% | 1007.3 hPa | - | - | - | - |
| 1787777858 | 16.67° C | 72% | 1007.3 hPa | - | - | - | - |
| 1787776957 | 17.22° C | 71% | 1007.1 hPa | - | - | - | - |
| 1787776055 | 17.22° C | 70% | 1007.2 hPa | - | - | - | - |
| 1787775154 | 17.78° C | 68% | 1007.2 hPa | - | - | - | - |
| 1787774253 | 17.78° C | 68% | 1007.1 hPa | - | - | - | - |
| 1787773352 | 17.78° C | 67% | 1007 hPa | - | - | - | - |
| 1787772451 | 18.33° C | 67% | 1007 hPa | - | - | - | - |
| 1787771549 | 17.78° C | 67% | 1006.8 hPa | - | - | - | - |
| 1787770649 | 17.78° C | 65% | 1006.9 hPa | - | - | - | - |
| 1787769748 | 18.33° C | 63% | 1006.9 hPa | - | - | - | - |
| 1787768847 | 18.89° C | 61% | 1006.8 hPa | - | - | - | - |
| 1787767946 | 18.33° C | 62% | 1006.7 hPa | - | - | - | - |
| 1787767045 | 18.89° C | 60% | 1006.8 hPa | - | - | - | - |
| 1787766144 | 18.89° C | 59% | 1006.8 hPa | - | - | 2 W/m² | - |
| 1787765242 | 18.89° C | 60% | 1006.7 hPa | - | - | 4 W/m² | - |
| 1787764346 | 19.44° C | 61% | 1006.7 hPa | - | - | 8 W/m² | - |
| 1787763440 | 19.44° C | 60% | 1006.7 hPa | - | - | 12 W/m² | - |
| 1787762539 | 20° C | 58% | 1006.6 hPa | - | - | 17 W/m² | - |
* Rain since midnight (hover to see other rain measurements)
** Current wind speed in m/s (hover to see current wind gust speed)